This is the latest recevied weather packets stored in our database for station/object OK1CBR-13. If no packets are shown the sender has not sent any weather packets the latest 10 day(s).
| Time | Temp. | Humidity | Pressure | Rain* | Wind** | Luminosity | Snow |
|---|---|---|---|---|---|---|---|
| 1777583252 | 8.89° C | 53% | 1030 hPa | - | - | - | - |
| 1777582652 | 8.89° C | 52% | 1030.1 hPa | - | - | - | - |
| 1777582052 | 8.89° C | 52% | 1030.1 hPa | - | - | - | - |
| 1777581452 | 9.44° C | 51% | 1030.1 hPa | - | - | - | - |
| 1777580852 | 9.44° C | 48% | 1030 hPa | - | - | - | - |
| 1777580252 | 9.44° C | 49% | 1030.2 hPa | - | - | - | - |
| 1777579652 | 10° C | 47% | 1030 hPa | - | - | - | - |
| 1777579052 | 10° C | 47% | 1030 hPa | - | - | - | - |
| 1777578452 | 10.56° C | 46% | 1029.9 hPa | - | - | - | - |
| 1777577852 | 10.56° C | 46% | 1029.8 hPa | - | - | - | - |
| 1777577252 | 11.11° C | 45% | 1029.8 hPa | - | - | - | - |
| 1777576652 | 11.11° C | 45% | 1029.6 hPa | - | - | - | - |
| 1777576052 | 11.67° C | 44% | 1029.6 hPa | - | - | - | - |
| 1777575452 | 11.67° C | 42% | 1029.5 hPa | - | - | - | - |
| 1777574852 | 12.22° C | 40% | 1029.5 hPa | - | - | - | - |
| 1777574252 | 12.78° C | 38% | 1029.4 hPa | - | - | - | - |
| 1777573652 | 13.33° C | 36% | 1029.3 hPa | - | - | - | - |
| 1777573052 | 14.44° C | 35% | 1029.4 hPa | - | - | - | - |
| 1777572452 | 15° C | 33% | 1029.3 hPa | - | - | - | - |
| 1777571852 | 15.56° C | 33% | 1029.2 hPa | - | - | - | - |
| 1777571252 | 16.11° C | 30% | 1029.1 hPa | - | - | - | - |
| 1777570652 | 17.22° C | 29% | 1028.9 hPa | - | - | - | - |
| 1777570052 | 18.89° C | 26% | 1028.8 hPa | - | - | - | - |
| 1777569452 | 21.11° C | 23% | 1028.7 hPa | - | - | - | - |
| 1777568852 | 21.67° C | 22% | 1028.8 hPa | - | - | - | - |
* Rain since midnight (hover to see other rain measurements)
** Current wind speed in m/s (hover to see current wind gust speed)